Location: El Bakhil
(32.7726°N, 5.5387°W)
Time: 01:29:59
(UTC+00:00)

ISS - Visible Passes

Search period start: 15 May 2021 00:00
Search period end: 25 May 2021 00:00
Orbit: 417 x 422 km, 51.6° (Epoch: 14 May)

Date Brightness Start Highest point End Pass type
(mag) Time Alt. Az. Time Alt. Az. Time Alt. Az.
15 May -0.7 03:18:56 10° N 03:21:17 17° NNE 03:23:38 10° ENE visible
15 May -3.3 04:55:01 10° WNW 04:58:13 41° SW 05:01:24 10° SSE visible
15 May -3.7 19:58:16 10° SSW 20:01:32 53° SE 20:04:48 10° NE visible
15 May -0.5 21:36:32 10° WNW 21:38:34 15° NNW 21:40:35 10° N visible
16 May -0.2 02:32:22 10° N 02:33:38 12° NNE 02:34:53 10° NE visible
16 May -3.9 04:07:27 10° NW 04:10:49 84° SW 04:14:11 10° SE visible
16 May -1.2 20:48:12 10° W 20:50:57 23° NW 20:53:42 10° NNE visible
17 May -2.8 03:20:05 10° NW 03:23:22 49° NE 03:26:39 10° ESE visible
17 May -2.2 20:00:14 10° WSW 20:03:24 39° NW 20:06:35 10° NNE visible
18 May -1.6 04:14:33 13° S 04:14:33 13° S 04:15:09 10° S visible
19 May -0.6 20:03:31 10° WNW 20:05:31 15° NNW 20:07:31 10° N visible
